Home   Weather   Gomel   Past weeks

Flag for Belarus Past Weather in Gomel, Belarus — Yesterday and Last 2 Weeks

37 °F

Partly sunny.

Feels Like: 27 °F
Forecast: 33 / 37 °F
Wind: 22 mph from Southeast

Location: Gomel'

Current Time: Oct 25, 2016 at 11:41:38 AM

Latest Report: Oct 25, 2016 at 11:00 AM

Visibility: N/A

Pressure: 30.57 "Hg

Humidity: 52%

Dew Point: 21 °F

Location of GomelLocation

Past Weather in Gomel — Graph


Gomel Temperature Yesterday

Maximum temperature yesterday: 43 °F (at 2:00 PM)
Minimum temperature yesterday: 37 °F (at 8:00 AM)
Average temperature yesterday: 40 °F

High & Low Weather Summary for the Past Weeks

High48 °F (Oct 13, 4:00 PM)100% (Oct 10, 10:00 AM)30.77 "Hg (Oct 10, 10:00 AM)
Low25 °F (Oct 18, 6:00 AM)43% (Oct 13, 1:00 PM)29.92 "Hg (Oct 10, 10:00 AM)
Average38 °F75%30.46 "Hg
* Reported Oct 10 10:00 AM — Oct 25 10:30 AM, Gomel, Weather by CustomWeather, © 2016

Note: Actual official high and low records may vary slightly from our data, if they occured in-between our weather recording intervals... More about our weather records


Gomel Weather History for the Previous 24 Hours

Scroll right to see more
Time TempWeatherWind HumidityBarometerVisibility
10:30 AM
Tue, Oct 25
37 °FSunny.24 mph56%30.60 "Hg10 mi
10:00 AM37 °FSunny.22 mph56%30.60 "Hg10 mi
9:30 AM37 °FSunny.20 mph56%30.60 "Hg10 mi
9:00 AM37 °FSunny.20 mph56%30.60 "Hg10 mi
8:30 AM37 °FClear.17 mph60%30.60 "Hg10 mi
8:00 AM37 °FClear.20 mph60%30.60 "Hg10 mi
7:30 AM39 °FClear.17 mph65%30.60 "Hg10 mi
7:00 AM39 °FClear.17 mph65%30.60 "Hg10 mi
6:30 AM39 °FClear.17 mph70%30.57 "Hg10 mi
6:00 AM39 °FClear.17 mph70%30.60 "Hg10 mi
5:00 AM39 °FClear.17 mph70%30.60 "Hg10 mi
4:00 AM39 °FClear.17 mph70%30.60 "Hg10 mi
3:00 AM39 °FClear.15 mph70%30.63 "Hg10 mi
2:00 AM39 °FOvercast.13 mph70%30.63 "HgN/A
1:00 AM39 °FOvercast.13 mph70%30.63 "HgN/A
12:00 AM39 °FOvercast.13 mph65%30.63 "HgN/A
11:30 PM
Mon, Oct 24
39 °FOvercast.13 mph65%30.63 "HgN/A
11:00 PM39 °FOvercast.13 mph65%30.63 "HgN/A
10:30 PM41 °FOvercast.13 mph61%30.63 "HgN/A
10:00 PM41 °FOvercast.15 mph61%30.63 "HgN/A
9:30 PM39 °FMostly cloudy.15 mph65%30.63 "HgN/A
9:00 PM39 °FMostly cloudy.15 mph65%30.63 "HgN/A
8:30 PM39 °FMostly cloudy.13 mph65%30.63 "HgN/A
8:00 PM39 °FPartly cloudy.15 mph65%30.63 "HgN/A
7:30 PM39 °FClear.15 mph61%30.60 "Hg10 mi
7:00 PM39 °FClear.10 mph61%30.60 "Hg10 mi
6:30 PM39 °FSunny.15 mph61%30.63 "Hg10 mi
6:00 PM39 °FSunny.10 mph61%30.63 "Hg10 mi
5:30 PM41 °FSunny.15 mph53%30.63 "Hg10 mi
5:00 PM41 °FSunny.15 mph53%30.63 "Hg10 mi
4:30 PM41 °FSunny.15 mph53%30.63 "Hg10 mi
4:00 PM41 °FSunny.15 mph53%30.63 "Hg10 mi
3:30 PM41 °FSunny.15 mph53%30.63 "Hg10 mi
3:00 PM41 °FSunny.15 mph53%30.63 "Hg10 mi
2:30 PM43 °FSunny.15 mph46%30.63 "Hg10 mi
2:00 PM43 °FSunny.15 mph46%30.63 "Hg10 mi
1:30 PM41 °FSunny.15 mph49%30.66 "Hg10 mi
1:00 PM41 °FSunny.15 mph49%30.66 "Hg10 mi
12:30 PM41 °FSunny.15 mph49%30.66 "Hg10 mi
12:00 PM41 °FSunny.15 mph49%30.66 "Hg10 mi
11:30 AM41 °FSunny.15 mph53%30.66 "Hg10 mi
11:00 AM41 °FSunny.15 mph53%30.66 "Hg10 mi
Weather by CustomWeather, © 2016

See weather overviewHow to use our weather pages